Погода в Вааса

Финляндия     63°05′53″N   21°37′31″E
темп.,
°C
ветер,
м/с
пор.,
м/с
влажн.,
%
обл.,
%
осадки,
мм/ч
давл.,
гПа
погр.,
м
27 ноября, сб
сб2723:00−9ю119495 0.0 100324
02:00−10ююв119656 0.0 100424
05:00−10юв129658 0.0 100530
08:00−10юв139633 0.0 100753
11:00−9юв249230 0.0 100889
14:00−7вюв258592 0.0 1009147
17:00−8юв388758 0.0 1008162
20:00−9юв1385100 0.0 100891
28 ноября, вс
вс2823:00−8юв2684100 0.1 1009137
02:00−9вюв1493100 0.1 100878
05:00−10в1394100 0.0 100865
08:00−9вюв2491100 0.0 100987
11:00−8в2487100 0.0 1009112
14:00−7всв2485100 0.0 1009120
17:00−8всв1488100 0.0 1010116
20:00−8в1387100 0.0 101079
29 ноября, пн
пн2923:00−8в2587100 0.0 1011112
02:00−8в2688100 0.0 1011141
05:00−7в1491100 0.0 1011132
08:00−8в2596100 0.0 1011113
11:00−8вюв279297 0.0 1011204
14:00−8в249250 0.0 1009120
17:00−11всв259737 0.0 1008108
20:00−11всв269739 0.0 1007137
30 ноября, вт
вт3023:00−12св259868 0.0 1005105
02:00−12св259764 0.0 1002106
05:00−12св279742 0.0 1000149
08:00−13св269667 0.0 998132
11:00−11св289097 0.0 996202
14:00−10всв149431 0.0 99499
17:00−11вюв129598 0.0 99356
20:00−11ююв019787 0.0 99336
1 декабря, ср
ср123:00−10юз129692 0.0 99259
02:00−5ссз4974100 0.1 992353
05:00−6ссз497240 0.0 992290
08:00−8сз268112 0.0 993126
11:00−9сз14855 0.0 99487
14:00−9зсз11885 0.0 99324
17:00−11з119138 0.0 99322
20:00−11юз119381 0.0 99226